Hlavní strana
METAR-TAF:

METAR-TAF

Letiště :

Glasgow Municipal Airport

Glasgow, Kentucky, Spojené státy americké

zeměpisná šířka: 37-01-54N, zeměpisná délka: 085-57-13W, výška: 218 m

Aktuální stav počasí

Zpráva byla vytvořena před 10 minutami, v 15:15 UTC
Severovýchodní vítr 8 kt
Teplota 0°C
Vlhkost vzduchu 80%
Tlak 1016 hPa
Viditelnost: 16.1 km
Polojasno ve výšce 3100 ft

METAR: KGLW 161515Z AUTO 04008KT 10SM SCT031 00/M03 A2999 RMK AO2 T10041035

Čas: 09:25 (15:25 UTC)


TAF: chybějící

Stav a předpovědi počasí z více než 4 000 letišť (zprávy METAR a TAF).

Červené a žluté tečky na mapě představují dostupné meteorologické stanice.

Když kurzor umístíte na tečku, zobrazí se název stanice.

Pak kliknutím zobrazíte stav a předpověď počasí.

Chcete-li změnit mapu, kliknutím na zelené tlačítko se znaménkem +mapu přiblížíte, kliknutím na zelené tlačítko se znaménkem – mapu oddálíte a kliknutím na zelené šipky přejdete na sousední mapy.


METAR-TAF: